Time,TemperatureF,DewpointF,PressureIn,WindDirection,WindDirectionDegrees,WindSpeedMPH,WindSpeedGustMPH,Humidity,HourlyPrecipIn,Conditions,Clouds,dailyrainin,SolarRadiationWatts/m^2,SoftwareType,DateUTC
2013-03-02 00:01:00,8.0,-12.0,-100.00,ENE,71,5.0,7.0,38,0.00,,,0.00,0.000000,,2013-03-02 06:01:00,
2013-03-02 00:32:00,7.0,-14.0,-100.00,East,79,4.0,7.0,36,0.00,,,0.00,0.000000,,2013-03-02 06:32:00,
2013-03-02 00:42:00,7.0,-14.0,-100.00,East,79,4.0,7.0,36,0.00,,,0.00,0.000000,,2013-03-02 06:42:00,
2013-03-02 00:52:00,7.0,-14.0,-100.00,East,79,4.0,7.0,36,0.00,,,0.00,0.000000,,2013-03-02 06:52:00,
2013-03-02 01:01:00,7.0,-14.0,-100.00,East,79,4.0,7.0,36,0.00,,,0.00,0.000000,,2013-03-02 07:01:00,
2013-03-02 01:22:00,5.0,-17.0,-100.00,East,85,4.0,7.0,34,0.00,,,0.00,0.000000,,2013-03-02 07:22:00,
2013-03-02 01:32:00,5.0,-17.0,-100.00,East,85,4.0,7.0,34,0.00,,,0.00,0.000000,,2013-03-02 07:32:00,
2013-03-02 01:42:00,5.0,-17.0,-100.00,East,85,4.0,7.0,34,0.00,,,0.00,0.000000,,2013-03-02 07:42:00,
2013-03-02 01:52:00,5.0,-17.0,-100.00,East,85,4.0,7.0,34,0.00,,,0.00,0.000000,,2013-03-02 07:52:00,
2013-03-02 02:01:00,5.0,-17.0,-100.00,East,85,4.0,7.0,34,0.00,,,0.00,0.000000,,2013-03-02 08:01:00,
2013-03-02 02:32:00,4.0,-16.0,-100.00,East,89,5.0,8.0,37,0.00,,,0.00,0.000000,,2013-03-02 08:32:00,
2013-03-02 02:43:00,4.0,-16.0,-100.00,East,89,5.0,8.0,37,0.00,,,0.00,0.000000,,2013-03-02 08:43:00,
2013-03-02 02:52:00,4.0,-16.0,-100.00,East,89,5.0,8.0,37,0.00,,,0.00,0.000000,,2013-03-02 08:52:00,
2013-03-02 03:01:00,4.0,-16.0,-100.00,East,89,5.0,8.0,37,0.00,,,0.00,0.000000,,2013-03-02 09:01:00,
2013-03-02 03:22:00,2.0,-18.0,-100.00,ENE,72,3.0,6.0,37,0.00,,,0.00,0.000000,,2013-03-02 09:22:00,
2013-03-02 03:32:00,2.0,-18.0,-100.00,ENE,72,3.0,6.0,37,0.00,,,0.00,0.000000,,2013-03-02 09:32:00,
2013-03-02 03:42:00,2.0,-18.0,-100.00,ENE,72,3.0,6.0,37,0.00,,,0.00,0.000000,,2013-03-02 09:42:00,
2013-03-02 03:52:00,2.0,-18.0,-100.00,ENE,72,3.0,6.0,37,0.00,,,0.00,0.000000,,2013-03-02 09:52:00,
2013-03-02 04:01:00,2.0,-18.0,-100.00,ENE,72,3.0,6.0,37,0.00,,,0.00,0.000000,,2013-03-02 10:01:00,
2013-03-02 04:32:00,2.0,-18.0,-100.00,East,89,3.0,6.0,37,0.00,,,0.00,0.000000,,2013-03-02 10:32:00,
2013-03-02 04:43:00,2.0,-18.0,-100.00,East,89,3.0,6.0,37,0.00,,,0.00,0.000000,,2013-03-02 10:43:00,
2013-03-02 04:52:00,2.0,-18.0,-100.00,East,89,3.0,6.0,37,0.00,,,0.00,0.000000,,2013-03-02 10:52:00,
2013-03-02 05:01:00,2.0,-18.0,-100.00,East,89,3.0,6.0,37,0.00,,,0.00,0.000000,,2013-03-02 11:01:00,
2013-03-02 05:32:00,0.0,-21.0,-100.00,East,89,4.0,6.0,36,0.00,,,0.00,0.000000,,2013-03-02 11:32:00,
2013-03-02 05:42:00,0.0,-21.0,-100.00,East,89,4.0,6.0,36,0.00,,,0.00,0.000000,,2013-03-02 11:42:00,
2013-03-02 05:52:00,0.0,-21.0,-100.00,East,89,4.0,6.0,36,0.00,,,0.00,0.000000,,2013-03-02 11:52:00,
2013-03-02 06:02:00,0.0,-21.0,-100.00,East,89,4.0,6.0,36,0.00,,,0.00,0.000000,,2013-03-02 12:02:00,
2013-03-02 06:22:00,0.0,-20.0,-100.00,East,84,3.0,5.0,37,0.00,,,0.00,0.000000,,2013-03-02 12:22:00,
2013-03-02 06:33:00,0.0,-20.0,-100.00,East,84,3.0,5.0,37,0.00,,,0.00,0.000000,,2013-03-02 12:33:00,
2013-03-02 06:43:00,0.0,-20.0,-100.00,East,84,3.0,5.0,37,0.00,,,0.00,0.000000,,2013-03-02 12:43:00,
2013-03-02 06:53:00,0.0,-20.0,-100.00,East,84,3.0,5.0,37,0.00,,,0.00,0.000000,,2013-03-02 12:53:00,
2013-03-02 07:01:00,0.0,-20.0,-100.00,East,84,3.0,5.0,37,0.00,,,0.00,0.000000,,2013-03-02 13:01:00,
2013-03-02 07:22:00,0.0,-20.0,-100.00,NE,53,3.0,5.0,37,0.00,,,0.00,4.000000,,2013-03-02 13:22:00,
2013-03-02 07:32:00,0.0,-20.0,-100.00,NE,53,3.0,5.0,37,0.00,,,0.00,4.000000,,2013-03-02 13:32:00,
2013-03-02 07:42:00,0.0,-20.0,-100.00,NE,53,3.0,5.0,37,0.00,,,0.00,4.000000,,2013-03-02 13:42:00,
2013-03-02 07:52:00,0.0,-20.0,-100.00,NE,53,3.0,5.0,37,0.00,,,0.00,4.000000,,2013-03-02 13:52:00,
2013-03-02 08:01:00,0.0,-20.0,-100.00,NE,53,3.0,5.0,37,0.00,,,0.00,4.000000,,2013-03-02 14:01:00,
2013-03-02 08:22:00,2.0,-18.0,-100.00,ENE,72,4.0,6.0,37,0.00,,,0.00,53.000000,,2013-03-02 14:22:00,
2013-03-02 08:32:00,2.0,-18.0,-100.00,ENE,72,4.0,6.0,37,0.00,,,0.00,53.000000,,2013-03-02 14:32:00,
2013-03-02 08:42:00,2.0,-18.0,-100.00,ENE,72,4.0,6.0,37,0.00,,,0.00,53.000000,,2013-03-02 14:42:00,
2013-03-02 08:52:00,2.0,-18.0,-100.00,ENE,72,4.0,6.0,37,0.00,,,0.00,53.000000,,2013-03-02 14:52:00,
2013-03-02 09:02:00,2.0,-18.0,-100.00,ENE,72,4.0,6.0,37,0.00,,,0.00,53.000000,,2013-03-02 15:02:00,
2013-03-02 09:32:00,10.0,-15.0,-100.00,ENE,71,4.0,7.0,30,0.00,,,0.00,314.000000,,2013-03-02 15:32:00,
2013-03-02 09:42:00,10.0,-15.0,-100.00,ENE,71,4.0,7.0,30,0.00,,,0.00,314.000000,,2013-03-02 15:42:00,
2013-03-02 09:52:00,10.0,-15.0,-100.00,ENE,71,4.0,7.0,30,0.00,,,0.00,314.000000,,2013-03-02 15:52:00,
2013-03-02 10:01:00,10.0,-15.0,-100.00,ENE,71,4.0,7.0,30,0.00,,,0.00,314.000000,,2013-03-02 16:01:00,
2013-03-02 10:22:00,18.0,-13.0,-100.00,East,79,3.0,6.0,24,0.00,,,0.00,495.000000,,2013-03-02 16:22:00,
2013-03-02 10:32:00,18.0,-13.0,-100.00,East,79,3.0,6.0,24,0.00,,,0.00,495.000000,,2013-03-02 16:32:00,
2013-03-02 10:42:00,18.0,-13.0,-100.00,East,79,3.0,6.0,24,0.00,,,0.00,495.000000,,2013-03-02 16:42:00,
2013-03-02 10:52:00,18.0,-13.0,-100.00,East,79,3.0,6.0,24,0.00,,,0.00,495.000000,,2013-03-02 16:52:00,
2013-03-02 11:01:00,18.0,-13.0,-100.00,East,79,3.0,6.0,24,0.00,,,0.00,495.000000,,2013-03-02 17:01:00,
2013-03-02 11:32:00,24.0,-16.0,-100.00,East,88,3.0,6.0,16,0.00,,,0.00,628.000000,,2013-03-02 17:32:00,
2013-03-02 11:42:00,24.0,-16.0,-100.00,East,88,3.0,6.0,16,0.00,,,0.00,628.000000,,2013-03-02 17:42:00,
2013-03-02 11:52:00,24.0,-16.0,-100.00,East,88,3.0,6.0,16,0.00,,,0.00,628.000000,,2013-03-02 17:52:00,
2013-03-02 12:02:00,24.0,-16.0,-100.00,East,88,3.0,6.0,16,0.00,,,0.00,628.000000,,2013-03-02 18:02:00,
2013-03-02 12:32:00,28.0,-20.0,-100.00,East,86,4.0,8.0,11,0.00,,,0.00,703.000000,,2013-03-02 18:32:00,
2013-03-02 12:42:00,28.0,-20.0,-100.00,East,86,4.0,8.0,11,0.00,,,0.00,703.000000,,2013-03-02 18:42:00,
2013-03-02 12:52:00,28.0,-20.0,-100.00,East,86,4.0,8.0,11,0.00,,,0.00,703.000000,,2013-03-02 18:52:00,
2013-03-02 13:01:00,28.0,-20.0,-100.00,East,86,4.0,8.0,11,0.00,,,0.00,703.000000,,2013-03-02 19:01:00,
2013-03-02 13:32:00,31.0,-21.0,-100.00,ESE,113,3.0,8.0,9,0.00,,,0.00,728.000000,,2013-03-02 19:32:00,
2013-03-02 13:42:00,31.0,-21.0,-100.00,ESE,113,3.0,8.0,9,0.00,,,0.00,728.000000,,2013-03-02 19:42:00,
2013-03-02 13:52:00,31.0,-21.0,-100.00,ESE,113,3.0,8.0,9,0.00,,,0.00,728.000000,,2013-03-02 19:52:00,
2013-03-02 14:01:00,31.0,-21.0,-100.00,ESE,113,3.0,8.0,9,0.00,,,0.00,728.000000,,2013-03-02 20:01:00,
2013-03-02 14:22:00,29.0,-21.0,-100.00,East,82,3.0,7.0,10,0.00,,,0.00,370.000000,,2013-03-02 20:22:00,
2013-03-02 14:32:00,29.0,-21.0,-100.00,East,82,3.0,7.0,10,0.00,,,0.00,370.000000,,2013-03-02 20:32:00,
2013-03-02 14:42:00,29.0,-21.0,-100.00,East,82,3.0,7.0,10,0.00,,,0.00,370.000000,,2013-03-02 20:42:00,
2013-03-02 15:02:00,29.0,-21.0,-100.00,East,82,3.0,7.0,10,0.00,,,0.00,370.000000,,2013-03-02 21:02:00,
2013-03-02 15:32:00,28.0,-18.0,-100.00,NNE,25,3.0,7.0,12,0.00,,,0.00,266.000000,,2013-03-02 21:32:00,
2013-03-02 15:42:00,28.0,-18.0,-100.00,NNE,25,3.0,7.0,12,0.00,,,0.00,266.000000,,2013-03-02 21:42:00,
2013-03-02 15:52:00,28.0,-18.0,-100.00,NNE,25,3.0,7.0,12,0.00,,,0.00,266.000000,,2013-03-02 21:52:00,
2013-03-02 16:02:00,28.0,-18.0,-100.00,NNE,25,3.0,7.0,12,0.00,,,0.00,266.000000,,2013-03-02 22:02:00,
2013-03-02 16:32:00,28.0,-20.0,-100.00,East,81,4.0,7.0,11,0.00,,,0.00,258.000000,,2013-03-02 22:32:00,
2013-03-02 16:42:00,28.0,-20.0,-100.00,East,81,4.0,7.0,11,0.00,,,0.00,258.000000,,2013-03-02 22:42:00,
2013-03-02 16:52:00,28.0,-20.0,-100.00,East,81,4.0,7.0,11,0.00,,,0.00,258.000000,,2013-03-02 22:52:00,
2013-03-02 17:01:00,28.0,-20.0,-100.00,East,81,4.0,7.0,11,0.00,,,0.00,258.000000,,2013-03-02 23:01:00,
2013-03-02 17:32:00,24.0,-21.0,-100.00,NE,56,3.0,7.0,12,0.00,,,0.00,162.000000,,2013-03-02 23:32:00,
2013-03-02 17:42:00,24.0,-21.0,-100.00,NE,56,3.0,7.0,12,0.00,,,0.00,162.000000,,2013-03-02 23:42:00,
2013-03-02 17:52:00,24.0,-21.0,-100.00,NE,56,3.0,7.0,12,0.00,,,0.00,162.000000,,2013-03-02 23:52:00,
2013-03-02 18:02:00,24.0,-21.0,-100.00,NE,56,3.0,7.0,12,0.00,,,0.00,162.000000,,2013-03-03 00:02:00,
2013-03-02 18:32:00,19.0,-25.0,-100.00,NE,55,2.0,5.0,12,0.00,,,0.00,17.000000,,2013-03-03 00:32:00,
2013-03-02 18:42:00,19.0,-25.0,-100.00,NE,55,2.0,5.0,12,0.00,,,0.00,17.000000,,2013-03-03 00:42:00,
2013-03-02 18:52:00,19.0,-25.0,-100.00,NE,55,2.0,5.0,12,0.00,,,0.00,17.000000,,2013-03-03 00:52:00,
2013-03-02 19:01:00,19.0,-25.0,-100.00,NE,55,2.0,5.0,12,0.00,,,0.00,17.000000,,2013-03-03 01:01:00,
2013-03-02 19:32:00,15.0,-23.0,-100.00,ENE,74,3.0,4.0,16,0.00,,,0.00,0.000000,,2013-03-03 01:32:00,
2013-03-02 19:42:00,15.0,-23.0,-100.00,ENE,74,3.0,4.0,16,0.00,,,0.00,0.000000,,2013-03-03 01:42:00,
2013-03-02 19:52:00,15.0,-23.0,-100.00,ENE,74,3.0,4.0,16,0.00,,,0.00,0.000000,,2013-03-03 01:52:00,
2013-03-02 20:01:00,15.0,-23.0,-100.00,ENE,74,3.0,4.0,16,0.00,,,0.00,0.000000,,2013-03-03 02:01:00,
2013-03-02 20:32:00,16.0,-23.0,-100.00,East,85,3.0,4.0,15,0.00,,,0.00,0.000000,,2013-03-03 02:32:00,
2013-03-02 20:42:00,16.0,-23.0,-100.00,East,85,3.0,4.0,15,0.00,,,0.00,0.000000,,2013-03-03 02:42:00,
2013-03-02 20:52:00,16.0,-23.0,-100.00,East,85,3.0,4.0,15,0.00,,,0.00,0.000000,,2013-03-03 02:52:00,
2013-03-02 21:01:00,16.0,-23.0,-100.00,East,85,3.0,4.0,15,0.00,,,0.00,0.000000,,2013-03-03 03:01:00,
2013-03-02 21:32:00,15.0,-24.0,-100.00,ESE,115,3.0,4.0,15,0.00,,,0.00,0.000000,,2013-03-03 03:32:00,
2013-03-02 21:42:00,15.0,-24.0,-100.00,ESE,115,3.0,4.0,15,0.00,,,0.00,0.000000,,2013-03-03 03:42:00,
2013-03-02 21:52:00,15.0,-24.0,-100.00,ESE,115,3.0,4.0,15,0.00,,,0.00,0.000000,,2013-03-03 03:52:00,
2013-03-02 22:01:00,15.0,-24.0,-100.00,ESE,115,3.0,4.0,15,0.00,,,0.00,0.000000,,2013-03-03 04:01:00,
2013-03-02 22:32:00,11.0,-25.0,-100.00,ENE,76,4.0,5.0,17,0.00,,,0.00,0.000000,,2013-03-03 04:32:00,
2013-03-02 22:42:00,11.0,-25.0,-100.00,ENE,76,4.0,5.0,17,0.00,,,0.00,0.000000,,2013-03-03 04:42:00,
2013-03-02 22:52:00,11.0,-25.0,-100.00,ENE,76,4.0,5.0,17,0.00,,,0.00,0.000000,,2013-03-03 04:52:00,
2013-03-02 23:02:00,11.0,-25.0,-100.00,ENE,76,4.0,5.0,17,0.00,,,0.00,0.000000,,2013-03-03 05:02:00,
2013-03-02 23:32:00,13.0,-24.0,-100.00,SSE,158,4.0,6.0,17,0.00,,,0.00,0.000000,,2013-03-03 05:32:00,
2013-03-02 23:42:00,13.0,-24.0,-100.00,SSE,158,4.0,6.0,17,0.00,,,0.00,0.000000,,2013-03-03 05:42:00,
2013-03-02 23:52:00,13.0,-24.0,-100.00,SSE,158,4.0,6.0,17,0.00,,,0.00,0.000000,,2013-03-03 05:52:00,